• Em Portugal
  • Lista de países
  • Para 7 dias
  • Temperatura da água
  • Mapas de satélite
  • Mapa do tempo
  • Widgets de tempo
  • user-avatar
    Iniciar Sessão

    Previsão horária em Kobdo

    Hoje, 20 Outubro, Sexta-feira

    Tempo Temperatura Precipitação Vento Pressão Humidade
    00:00 -1°C° 0 mm 3 m/s 590 mmHg 69%
    01:00 -2°C° 0 mm 3 m/s 590 mmHg 67%
    02:00 -2°C° 0 mm 3 m/s 590 mmHg 66%
    03:00 -4°C° 0 mm 4 m/s 590 mmHg 64%
    04:00 -4°C° 0 mm 4 m/s 590 mmHg 61%
    05:00 -5°C° 0 mm 3 m/s 590 mmHg 57%
    06:00 -5°C° 0 mm 3 m/s 590 mmHg 53%
    07:00 -4°C° 0 mm 3 m/s 590 mmHg 50%
    08:00 -3°C° 0 mm 4 m/s 591 mmHg 48%
    09:00 -2°C° 0 mm 4 m/s 592 mmHg 45%
    10:00 -1°C° 0 mm 5 m/s 592 mmHg 46%
    11:00 -1°C° 0 mm 6 m/s 592 mmHg 46%
    12:00 0°C° 0 mm 7 m/s 592 mmHg 46%
    13:00 0°C° 0 mm 7 m/s 592 mmHg 47%
    14:00 0°C° 0 mm 7 m/s 592 mmHg 47%
    15:00 +1°C° 0 mm 6 m/s 592 mmHg 47%
    16:00 -1°C° 0 mm 5 m/s 592 mmHg 52%
    17:00 -2°C° 0 mm 4 m/s 592 mmHg 57%
    18:00 -2°C° 0 mm 3 m/s 592 mmHg 61%
    19:00 -2°C° 0 mm 3 m/s 592 mmHg 63%
    20:00 -4°C° 0 mm 3 m/s 592 mmHg 64%
    21:00 -4°C° 0 mm 3 m/s 592 mmHg 66%
    22:00 -4°C° 0 mm 3 m/s 592 mmHg 66%
    23:00 -5°C° 0 mm 3 m/s 592 mmHg 66%

    Amanhã, 21 Outubro, Sábado

    Tempo Temperatura Precipitação Vento Pressão Humidade
    00:00 -5°C° 0 mm 3 m/s 592 mmHg 66%
    01:00 -5°C° 0 mm 3 m/s 592 mmHg 67%
    02:00 -5°C° 0 mm 3 m/s 592 mmHg 67%
    03:00 -5°C° 0 mm 2 m/s 592 mmHg 67%
    04:00 -5°C° 0 mm 2 m/s 592 mmHg 67%
    05:00 -5°C° 0 mm 2 m/s 592 mmHg 67%
    06:00 -5°C° 0 mm 2 m/s 592 mmHg 67%
    07:00 -4°C° 0 mm 2 m/s 592 mmHg 62%
    08:00 0°C° 0 mm 1 m/s 593 mmHg 57%
    09:00 +1°C° 0 mm 1 m/s 593 mmHg 52%
    10:00 +2°C° 0 mm 1 m/s 593 mmHg 48%
    11:00 +3°C° 0 mm 1 m/s 593 mmHg 45%
    12:00 +4°C° 0 mm 1 m/s 593 mmHg 41%
    13:00 +4°C° 0 mm 2 m/s 593 mmHg 42%
    14:00 +4°C° 0 mm 2 m/s 592 mmHg 43%
    15:00 +4°C° 0 mm 2 m/s 592 mmHg 43%
    16:00 +3°C° 0 mm 2 m/s 591 mmHg 46%
    17:00 +2°C° 0 mm 1 m/s 591 mmHg 49%
    18:00 +1°C° 0 mm 1 m/s 590 mmHg 52%
    19:00 +1°C° 0 mm 1 m/s 590 mmHg 52%
    20:00 -2°C° 0 mm 2 m/s 590 mmHg 52%
    21:00 -2°C° 0 mm 2 m/s 590 mmHg 52%
    22:00 -2°C° 0 mm 2 m/s 590 mmHg 51%
    23:00 -2°C° 0 mm 2 m/s 589 mmHg 50%

    Depois de amanhã, 22 Outubro, Domingo

    Tempo Temperatura Precipitação Vento Pressão Humidade
    00:00 -2°C° 0 mm 2 m/s 589 mmHg 49%
    01:00 -3°C° 0 mm 2 m/s 589 mmHg 48%
    02:00 -3°C° 0 mm 2 m/s 589 mmHg 47%
    03:00 -3°C° 0 mm 2 m/s 589 mmHg 46%
    04:00 -3°C° 0 mm 2 m/s 589 mmHg 46%
    05:00 -3°C° 0 mm 2 m/s 589 mmHg 46%
    06:00 -3°C° 0 mm 2 m/s 588 mmHg 47%
    07:00 -2°C° 0 mm 2 m/s 589 mmHg 45%
    08:00 +1°C° 0 mm 2 m/s 590 mmHg 44%
    09:00 +2°C° 0 mm 2 m/s 590 mmHg 43%
    10:00 +3°C° 0 mm 2 m/s 590 mmHg 41%
    11:00 +4°C° 0 mm 2 m/s 591 mmHg 39%
    12:00 +5°C° 0 mm 2 m/s 591 mmHg 38%
    13:00 +5°C° 0 mm 2 m/s 591 mmHg 39%
    14:00 +6°C° 0 mm 2 m/s 590 mmHg 39%
    15:00 +6°C° 0 mm 2 m/s 590 mmHg 40%
    16:00 +4°C° 0 mm 2 m/s 590 mmHg 44%
    17:00 +3°C° 0 mm 2 m/s 590 mmHg 48%
    18:00 +1°C° 0 mm 2 m/s 589 mmHg 51%
    19:00 +1°C° 0 mm 2 m/s 589 mmHg 51%
    20:00 +1°C° 0 mm 2 m/s 589 mmHg 51%
    21:00 +1°C° 0 mm 2 m/s 589 mmHg 51%
    22:00 +1°C° 0 mm 2 m/s 589 mmHg 49%
    23:00 +1°C° 0 mm 2 m/s 589 mmHg 48%

    23 Outubro, Segunda-feira

    Tempo Temperatura Precipitação Vento Pressão Humidade
    00:00 -1°C° 0 mm 2 m/s 589 mmHg 46%
    01:00 -1°C° 0 mm 2 m/s 589 mmHg 46%
    02:00 -1°C° 0 mm 2 m/s 589 mmHg 45%
    03:00 -1°C° 0 mm 2 m/s 589 mmHg 44%
    04:00 -1°C° 0 mm 2 m/s 589 mmHg 44%
    05:00 -2°C° 0 mm 2 m/s 589 mmHg 43%
    06:00 -2°C° 0 mm 2 m/s 589 mmHg 43%
    07:00 -1°C° 0 mm 2 m/s 590 mmHg 41%
    08:00 +2°C° 0 mm 2 m/s 590 mmHg 39%
    09:00 +4°C° 0 mm 1 m/s 591 mmHg 37%
    10:00 +5°C° 0 mm 1 m/s 591 mmHg 35%
    11:00 +6°C° 0 mm 1 m/s 591 mmHg 33%
    12:00 +7°C° 0 mm 1 m/s 591 mmHg 31%
    13:00 +7°C° 0 mm 1 m/s 591 mmHg 32%
    14:00 +7°C° 0 mm 1 m/s 591 mmHg 33%
    15:00 +7°C° 0 mm 1 m/s 591 mmHg 33%
    16:00 +5°C° 0 mm 1 m/s 590 mmHg 36%
    17:00 +4°C° 0 mm 1 m/s 590 mmHg 39%
    18:00 +1°C° 0 mm 0 m/s 589 mmHg 42%
    19:00 0°C° 0 mm 0 m/s 589 mmHg 43%
    20:00 0°C° 0 mm 0 m/s 589 mmHg 43%
    21:00 0°C° 0 mm 0 m/s 590 mmHg 43%
    22:00 0°C° 0 mm 1 m/s 589 mmHg 43%
    23:00 0°C° 0 mm 1 m/s 589 mmHg 43%

    24 Outubro, Terça-feira

    Tempo Temperatura Precipitação Vento Pressão Humidade
    00:00 0°C° 0 mm 1 m/s 589 mmHg 43%
    01:00 0°C° 0 mm 1 m/s 589 mmHg 43%
    02:00 -1°C° 0 mm 1 m/s 588 mmHg 43%
    03:00 -1°C° 0 mm 1 m/s 588 mmHg 43%
    04:00 -1°C° 0 mm 1 m/s 588 mmHg 44%
    05:00 -1°C° 0 mm 1 m/s 588 mmHg 44%
    06:00 -1°C° 0 mm 1 m/s 588 mmHg 44%
    07:00 0°C° 0 mm 1 m/s 589 mmHg 42%
    08:00 +1°C° 0 mm 1 m/s 590 mmHg 39%
    09:00 +3°C° 0 mm 1 m/s 591 mmHg 37%
    10:00 +4°C° 0 mm 1 m/s 591 mmHg 36%
    11:00 +5°C° 0 mm 1 m/s 591 mmHg 35%
    12:00 +6°C° 0 mm 1 m/s 591 mmHg 34%
    13:00 +6°C° 0 mm 1 m/s 591 mmHg 34%
    14:00 +6°C° 0 mm 1 m/s 591 mmHg 35%
    15:00 +5°C° 0 mm 2 m/s 591 mmHg 36%
    16:00 +3°C° 0 mm 2 m/s 591 mmHg 39%
    17:00 +2°C° 0 mm 2 m/s 590 mmHg 43%
    18:00 +1°C° 0 mm 2 m/s 590 mmHg 47%
    19:00 -1°C° 0 mm 2 m/s 590 mmHg 48%
    20:00 -1°C° 0 mm 2 m/s 591 mmHg 48%
    21:00 -1°C° 0 mm 2 m/s 591 mmHg 49%
    22:00 -1°C° 0 mm 3 m/s 591 mmHg 48%
    23:00 -1°C° 0 mm 3 m/s 591 mmHg 48%

    25 Outubro, Quarta-feira

    Tempo Temperatura Precipitação Vento Pressão Humidade
    00:00 -1°C° 0 mm 3 m/s 591 mmHg 47%
    01:00 -1°C° 0 mm 3 m/s 591 mmHg 47%
    02:00 -1°C° 0 mm 3 m/s 591 mmHg 48%
    03:00 -2°C° 0 mm 3 m/s 592 mmHg 48%
    04:00 -2°C° 0 mm 3 m/s 592 mmHg 48%
    05:00 -2°C° 0 mm 3 m/s 592 mmHg 49%
    06:00 -2°C° 0 mm 3 m/s 592 mmHg 50%
    07:00 -1°C° 0 mm 3 m/s 592 mmHg 49%
    08:00 0°C° 0 mm 3 m/s 593 mmHg 48%
    09:00 0°C° 0 mm 4 m/s 593 mmHg 47%
    10:00 +1°C° 0 mm 4 m/s 593 mmHg 46%
    11:00 +3°C° 0 mm 4 m/s 593 mmHg 44%
    12:00 +4°C° 0 mm 4 m/s 593 mmHg 42%
    13:00 +4°C° 0 mm 4 m/s 593 mmHg 43%
    14:00 +4°C° 0 mm 4 m/s 592 mmHg 45%
    15:00 +4°C° 0 mm 4 m/s 592 mmHg 46%
    16:00 +3°C° 0 mm 4 m/s 591 mmHg 50%
    17:00 0°C° 0 mm 4 m/s 591 mmHg 54%
    18:00 0°C° 0 mm 3 m/s 590 mmHg 59%
    19:00 -1°C° 0 mm 3 m/s 590 mmHg 59%
    20:00 -1°C° 0 mm 3 m/s 590 mmHg 60%
    21:00 -3°C° 0 mm 4 m/s 589 mmHg 61%
    22:00 -3°C° 0 mm 4 m/s 589 mmHg 61%
    23:00 -3°C° 0 mm 4 m/s 589 mmHg 61%
    Mostrar mais